| time (UTC) | temp C | wind direction | speed KPH | gust KPH | rain 1hr cm | rain 24hr cm | rain mn cm | humidity % | barometer mb |
| 20260508063050 | 5 | 0 | 0.0 | 0.0 | 0.00 | 0.10 | 0.00 | 86 | 1014.6 |
| 20260508061552 | 5 | 0 | 0.0 | 0.0 | 0.00 | 0.10 | 0.00 | 85 | 1014.5 |
| 20260508060049 | 5 | 0 | 0.0 | 0.0 | 0.00 | 0.10 | 0.00 | 86 | 1014.6 |
| 20260508054550 | 5 | 0 | 0.0 | 0.0 | 0.00 | 0.10 | 0.00 | 84 | 1014.5 |
| 20260508053102 | 5 | 0 | 0.0 | 0.0 | 0.00 | 0.10 | 0.00 | 85 | 1014.3 |
| 20260508051548 | 6 | 0 | 0.0 | 0.0 | 0.00 | 0.10 | 0.00 | 85 | 1014.1 |
| 20260508050059 | 6 | 0 | 0.0 | 0.0 | 0.00 | 0.10 | 0.00 | 84 | 1014.0 |
| 20260508044547 | 6 | 0 | 0.0 | 0.0 | 0.00 | 0.10 | 0.00 | 84 | 1013.9 |
| 20260508043059 | 6 | 0 | 0.0 | 3.2 | 0.00 | 0.10 | 0.00 | 84 | 1013.6 |
| 20260508041551 | 6 | 0 | 0.0 | 0.0 | 0.00 | 0.10 | 0.00 | 83 | 1013.4 |
| 20260508040053 | 6 | 0 | 0.0 | 0.0 | 0.00 | 0.10 | 0.00 | 84 | 1013.3 |
| 20260508034548 | 7 | 0 | 0.0 | 0.0 | 0.00 | 0.13 | 0.10 | 83 | 1013.0 |
| 20260508033053 | 7 | 0 | 0.0 | 0.0 | 0.00 | 0.13 | 0.10 | 82 | 1013.0 |
| 20260508031555 | 7 | 0 | 0.0 | 0.0 | 0.00 | 0.13 | 0.10 | 81 | 1012.9 |
| 20260508030058 | 7 | 0 | 0.0 | 0.0 | 0.00 | 0.13 | 0.10 | 80 | 1012.8 |
| 20260508024557 | 8 | 0 | 0.0 | 1.6 | 0.00 | 0.25 | 0.10 | 79 | 1012.6 |
| 20260508023048 | 8 | 0 | 0.0 | 0.0 | 0.00 | 0.25 | 0.10 | 79 | 1012.6 |
| 20260508021553 | 8 | 0 | 0.0 | 0.0 | 0.00 | 0.25 | 0.10 | 76 | 1012.3 |
| 20260508020048 | 9 | 0 | 0.0 | 0.0 | 0.00 | 0.25 | 0.10 | 75 | 1012.1 |
| 20260508014550 | 10 | 295 | 0.0 | 3.2 | 0.00 | 0.25 | 0.10 | 74 | 1011.9 |
| 20260508013046 | 10 | 0 | 0.0 | 0.0 | 0.00 | 0.25 | 0.10 | 73 | 1011.5 |
| 20260508011547 | 11 | 0 | 0.0 | 0.0 | 0.00 | 0.25 | 0.10 | 69 | 1011.4 |
| 20260508010047 | 11 | 0 | 0.0 | 1.6 | 0.00 | 0.25 | 0.10 | 67 | 1011.2 |
| 20260508004553 | 12 | 0 | 0.0 | 3.2 | 0.00 | 0.25 | 0.10 | 62 | 1011.1 |
| 20260508003049 | 13 | 0 | 0.0 | 3.2 | 0.00 | 0.25 | 0.10 | 57 | 1011.1 |
| 20260508001551 | 13 | 0 | 0.0 | 3.2 | 0.00 | 0.25 | 0.10 | 57 | 1010.9 |
| 20260508000053 | 14 | 0 | 0.0 | 12.9 | 0.00 | 0.25 | 0.10 | 54 | 1010.9 |
| 20260507234552 | 15 | 338 | 1.6 | 14.5 | 0.00 | 0.25 | 0.10 | 52 | 1010.8 |
| 20260507233052 | 15 | 0 | 0.0 | 11.3 | 0.00 | 0.25 | 0.10 | 60 | 1010.5 |
| 20260507231550 | 16 | 0 | 0.0 | 4.8 | 0.00 | 0.25 | 0.10 | 54 | 1010.2 |
| 20260507230100 | 17 | 269 | 1.6 | 4.8 | 0.00 | 0.25 | 0.10 | 50 | 1010.0 |
| 20260507224557 | 17 | 130 | 1.6 | 8.0 | 0.00 | 0.25 | 0.10 | 51 | 1009.8 |
| 20260507223053 | 18 | 0 | 0.0 | 9.7 | 0.00 | 0.25 | 0.10 | 50 | 1009.7 |
| 20260507221549 | 18 | 266 | 1.6 | 11.3 | 0.00 | 0.25 | 0.10 | 52 | 1009.6 |
| 20260507220052 | 17 | 0 | 0.0 | 9.7 | 0.00 | 0.25 | 0.10 | 59 | 1009.3 |
| 20260507214550 | 17 | 257 | 1.6 | 6.4 | 0.00 | 0.25 | 0.10 | 64 | 1009.2 |
| 20260507213059 | 16 | 0 | 0.0 | 3.2 | 0.00 | 0.25 | 0.10 | 73 | 1009.3 |
| 20260507211554 | 15 | 0 | 0.0 | 0.0 | 0.00 | 0.25 | 0.10 | 72 | 1009.3 |
| 20260507210050 | 15 | 0 | 0.0 | 4.8 | 0.00 | 0.25 | 0.10 | 70 | 1009.2 |
| 20260507204555 | 15 | 0 | 0.0 | 3.2 | 0.00 | 0.25 | 0.10 | 69 | 1009.1 |
| 20260507203050 | 15 | 0 | 0.0 | 4.8 | 0.00 | 0.25 | 0.10 | 68 | 1009.0 |
| 20260507201601 | 15 | 0 | 0.0 | 4.8 | 0.00 | 0.25 | 0.10 | 67 | 1009.1 |
| 20260507200055 | 15 | 0 | 0.0 | 0.0 | 0.00 | 0.25 | 0.10 | 75 | 1009.3 |
| 20260507194553 | 14 | 0 | 0.0 | 3.2 | 0.00 | 0.25 | 0.10 | 71 | 1009.7 |
| 20260507193051 | 14 | 0 | 0.0 | 0.0 | 0.00 | 0.25 | 0.10 | 73 | 1010.1 |
| 20260507191610 | 13 | 0 | 0.0 | 3.2 | 0.00 | 0.25 | 0.10 | 71 | 1010.2 |
| 20260507190047 | 13 | 0 | 0.0 | 0.0 | 0.00 | 0.25 | 0.10 | 82 | 1010.2 |
| 20260507184557 | 13 | 0 | 0.0 | 0.0 | 0.00 | 0.25 | 0.10 | 79 | 1010.4 |
| 20260507183049 | 13 | 0 | 0.0 | 0.0 | 0.00 | 0.25 | 0.10 | 82 | 1010.6 |
| 20260507181552 | 13 | 0 | 0.0 | 0.0 | 0.00 | 0.25 | 0.10 | 85 | 1010.6 |
| 20260507180046 | 12 | 0 | 0.0 | 0.0 | 0.08 | 0.25 | 0.10 | 85 | 1010.6 |
| 20260507174547 | 12 | 0 | 0.0 | 0.0 | 0.08 | 0.25 | 0.10 | 87 | 1010.6 |
| 20260507173051 | 12 | 0 | 0.0 | 0.0 | 0.08 | 0.25 | 0.10 | 85 | 1010.6 |
| 20260507171552 | 13 | 0 | 0.0 | 1.6 | 0.08 | 0.25 | 0.10 | 81 | 1010.6 |
| 20260507170050 | 13 | 0 | 0.0 | 4.8 | 0.00 | 0.18 | 0.03 | 74 | 1010.8 |
| 20260507164604 | 13 | 0 | 0.0 | 1.6 | 0.00 | 0.23 | 0.03 | 76 | 1010.7 |
| 20260507163047 | 13 | 0 | 0.0 | 0.0 | 0.00 | 0.23 | 0.03 | 76 | 1010.6 |
| 20260507161554 | 13 | 0 | 0.0 | 0.0 | 0.00 | 0.23 | 0.03 | 76 | 1010.5 |
| 20260507160052 | 13 | 0 | 0.0 | 4.8 | 0.00 | 0.23 | 0.03 | 75 | 1010.7 |
| 20260507154551 | 14 | 0 | 0.0 | 3.2 | 0.00 | 0.23 | 0.03 | 78 | 1010.9 |
| 20260507153050 | 14 | 280 | 0.0 | 1.6 | 0.00 | 0.23 | 0.03 | 77 | 1011.1 |
| 20260507151552 | 14 | 0 | 0.0 | 3.2 | 0.00 | 0.23 | 0.03 | 76 | 1011.0 |
| 20260507150051 | 14 | 268 | 0.0 | 1.6 | 0.00 | 0.23 | 0.03 | 76 | 1010.9 |
| 20260507144600 | 15 | 0 | 0.0 | 1.6 | 0.00 | 0.23 | 0.03 | 78 | 1010.7 |
| 20260507143104 | 15 | 0 | 0.0 | 0.0 | 0.00 | 0.23 | 0.03 | 77 | 1010.6 |
| 20260507141607 | 15 | 0 | 0.0 | 6.4 | 0.00 | 0.23 | 0.03 | 78 | 1010.6 |
| 20260507140053 | 15 | 0 | 0.0 | 3.2 | 0.00 | 0.23 | 0.03 | 80 | 1010.5 |
| 20260507134551 | 15 | 0 | 0.0 | 4.8 | 0.00 | 0.28 | 0.03 | 79 | 1010.8 |
| 20260507133049 | 15 | 0 | 0.0 | 0.0 | 0.00 | 0.28 | 0.03 | 80 | 1010.9 |
| 20260507131559 | 14 | 0 | 0.0 | 3.2 | 0.00 | 0.28 | 0.03 | 80 | 1010.9 |
| 20260507130058 | 15 | 0 | 0.0 | 3.2 | 0.00 | 0.28 | 0.03 | 81 | 1011.1 |
| 20260507124547 | 14 | 0 | 0.0 | 4.8 | 0.00 | 0.28 | 0.03 | 81 | 1010.9 |
| 20260507123108 | 14 | 0 | 0.0 | 3.2 | 0.00 | 0.28 | 0.03 | 82 | 1011.0 |
| 20260507121549 | 13 | 0 | 0.0 | 0.0 | 0.00 | 0.28 | 0.03 | 85 | 1011.0 |
| 20260507120048 | 13 | 0 | 0.0 | 6.4 | 0.00 | 0.28 | 0.03 | 85 | 1010.9 |
| 20260507114552 | 13 | 0 | 0.0 | 1.6 | 0.00 | 0.28 | 0.03 | 86 | 1010.8 |
| 20260507113047 | 13 | 0 | 0.0 | 1.6 | 0.00 | 0.28 | 0.03 | 88 | 1010.7 |
| 20260507111549 | 13 | 0 | 0.0 | 1.6 | 0.00 | 0.28 | 0.03 | 88 | 1010.6 |
| 20260507110052 | 13 | 0 | 0.0 | 0.0 | 0.00 | 0.28 | 0.03 | 89 | 1010.1 |
| 20260507104551 | 14 | 0 | 0.0 | 0.0 | 0.00 | 0.28 | 0.03 | 89 | 1010.2 |
| 20260507103050 | 14 | 0 | 0.0 | 0.0 | 0.00 | 0.28 | 0.03 | 88 | 1009.9 |
| 20260507101551 | 14 | 0 | 0.0 | 1.6 | 0.00 | 0.28 | 0.03 | 87 | 1010.1 |
| 20260507100057 | 14 | 0 | 0.0 | 0.0 | 0.00 | 0.28 | 0.03 | 88 | 1010.1 |
| 20260507094550 | 14 | 284 | 0.0 | 8.0 | 0.00 | 0.28 | 0.03 | 89 | 1010.1 |
| 20260507093048 | 14 | 0 | 0.0 | 0.0 | 0.00 | 0.28 | 0.03 | 91 | 1009.8 |
| 20260507091551 | 15 | 0 | 0.0 | 0.0 | 0.00 | 0.28 | 0.03 | 91 | 1010.2 |
| 20260507090058 | 15 | 0 | 0.0 | 0.0 | 0.00 | 0.28 | 0.03 | 92 | 1009.4 |
| 20260507084554 | 15 | 0 | 0.0 | 0.0 | 0.00 | 0.28 | 0.03 | 92 | 1009.7 |
| 20260507083050 | 15 | 0 | 0.0 | 0.0 | 0.00 | 0.28 | 0.03 | 92 | 1010.1 |
| 20260507081554 | 15 | 0 | 0.0 | 1.6 | 0.00 | 0.28 | 0.03 | 92 | 1009.9 |
| 20260507080112 | 15 | 0 | 0.0 | 0.0 | 0.00 | 0.28 | 0.03 | 91 | 1010.1 |
| 20260507074547 | 15 | 0 | 0.0 | 0.0 | 0.00 | 0.28 | 0.03 | 91 | 1010.1 |
| 20260507073050 | 15 | 0 | 0.0 | 0.0 | 0.03 | 0.28 | 0.03 | 91 | 1010.1 |
| 20260507071549 | 16 | 0 | 0.0 | 0.0 | 0.03 | 0.28 | 0.03 | 90 | 1009.9 |
| 20260507070054 | 16 | 0 | 0.0 | 3.2 | 0.03 | 0.28 | 0.03 | 90 | 1009.8 |
| 20260507064619 | 16 | 0 | 0.0 | 0.0 | 0.03 | 0.28 | 0.03 | 92 | 1009.7 |